This demonstration page uses our WeatherBlox Daily Observations layout. Learn more.

Left ArrowRight Arrow

Hourly Observations for May 15, 2017

Temp ( °F °C ) Dew Point ( °F °C ) Humidity (%) Winds ( mph kmh ) Pressure ( in mb ) Visibility ( mi km ) Precip ( " mm )
12:52 am 00:52 Clear 62 16.7 54 12.2 75 75 S 8 13 29.91 1013 10 16 0.00 0.00
1:52 am 01:52 Clear 61 16.1 54 12.2 78 78 SSE 10 17 29.90 1013 10 16 0.00 0.00
2:52 am 02:52 Clear 61 16.1 54 12.2 78 78 S 8 13 29.90 1013 10 16 0.00 0.00
3:52 am 03:52 Clear 60 15.6 53 11.7 78 78 SSE 9 15 29.91 1013 10 16 0.00 0.00
4:52 am 04:52 Clear 60 15.6 53 11.7 78 78 SSE 8 13 29.91 1013 10 16 0.00 0.00
5:52 am 05:52 Clear 59 15 53 11.7 81 81 S 7 11 29.91 1013 10 16 0.00 0.00
6:52 am 06:52 Sunny 61 16.1 54 12.2 78 78 SSE 7 11 29.91 1013 10 16 0.00 0.00
7:52 am 07:52 Sunny 64 17.8 56 13.3 75 75 S 9 15 29.92 1013 10 16 0.00 0.00
8:52 am 08:52 Sunny 68 20 58 14.4 70 70 S 9 15 29.93 1013 10 16 0.00 0.00
9:52 am 09:52 Sunny 71 21.7 60 15.6 68 68 S 8 13 29.95 1014 10 16 0.00 0.00
10:52 am 10:52 Sunny 76 24.4 63 17.2 64 64 SSW 10 17 29.94 1014 10 16 0.00 0.00
11:52 am 11:52 Sunny 78 25.6 64 17.8 62 62 S 8 13 29.93 1014 10 16 0.00 0.00
12:52 pm 12:52 Sunny 81 27.2 65 18.3 58 58 S 8 13 29.92 1013 10 16 0.00 0.00
1:52 pm 13:52 Sunny 82 27.8 62 16.7 51 51 S 14 22 29.90 1012 10 16 0.00 0.00
2:52 pm 14:52 Sunny 83 28.3 62 16.7 49 49 SSW 10 17 29.88 1012 10 16 0.00 0.00
3:52 pm 15:52 Sunny 82 27.8 62 16.7 51 51 S 13 20 29.87 1012 10 16 0.00 0.00
4:52 pm 16:52 Sunny 82 27.8 62 16.7 51 51 S 10 17 29.86 1011 10 16 0.00 0.00
5:52 pm 17:52 Sunny 79 26.1 60 15.6 52 52 SSE 12 19 29.86 1011 10 16 0.00 0.00
6:52 pm 18:52 Sunny 80 26.7 61 16.1 52 52 SSE 12 19 29.85 1011 10 16 0.00 0.00
7:52 pm 19:52 Sunny 77 25 60 15.6 56 56 SSE 9 15 29.84 1011 10 16 0.00 0.00
8:52 pm 20:52 Clear 74 23.3 60 15.6 62 62 SSE 9 15 29.83 1010 10 16 0.00 0.00
9:52 pm 21:52 Clear 73 22.8 61 16.1 66 66 S 12 19 29.83 1010 10 16 0.00 0.00
10:52 pm 22:52 Clear 71 21.7 61 16.1 71 71 S 12 19 29.83 1010 10 16 0.00 0.00
11:52 pm 23:52 Clear 70 21.1 60 15.6 71 71 S 9 15 29.86 1011 10 16 0.00 0.00

Powered by AerisWeather